Time,TemperatureF,DewpointF,PressureIn,WindDirection,WindDirectionDegrees,WindSpeedMPH,WindSpeedGustMPH,Humidity,HourlyPrecipIn,Conditions,Clouds,dailyrainin,SoftwareType,DateUTC
2013-08-02 00:04:00,55.2,54.6,30.14,SW,220,0.0,2.0,98,0.00,,,0.00,Wunderground v.1.15,2013-08-02 07:04:00,
2013-08-02 00:09:00,55.1,54.3,30.14,SW,220,0.0,2.0,97,0.00,,,0.00,Wunderground v.1.15,2013-08-02 07:09:00,
2013-08-02 00:14:00,55.0,54.2,30.14,SW,220,0.0,0.0,97,0.00,,,0.00,Wunderground v.1.15,2013-08-02 07:14:00,
2013-08-02 00:20:00,55.1,54.3,30.14,SW,220,0.0,0.0,97,0.00,,,0.00,Wunderground v.1.15,2013-08-02 07:20:00,
2013-08-02 00:26:00,54.8,54.0,30.14,SW,220,0.0,0.0,97,0.00,,,0.00,Wunderground v.1.15,2013-08-02 07:26:00,
2013-08-02 00:32:00,54.8,54.2,30.14,SW,220,0.0,0.0,98,0.00,,,0.00,Wunderground v.1.15,2013-08-02 07:32:00,
2013-08-02 00:38:00,55.0,54.4,30.14,SW,220,0.0,0.0,98,0.00,,,0.00,Wunderground v.1.15,2013-08-02 07:38:00,
2013-08-02 00:44:00,55.0,54.4,30.13,SW,220,0.0,0.0,98,0.00,,,0.00,Wunderground v.1.15,2013-08-02 07:44:00,
2013-08-02 00:50:00,55.0,54.4,30.13,SW,220,0.0,0.0,98,0.00,,,0.00,Wunderground v.1.15,2013-08-02 07:50:00,
2013-08-02 00:56:00,55.1,54.3,30.13,SW,220,0.0,0.0,97,0.00,,,0.00,Wunderground v.1.15,2013-08-02 07:56:00,
2013-08-02 01:01:00,54.9,54.1,30.13,SW,220,0.0,1.0,97,0.00,,,0.00,Wunderground v.1.15,2013-08-02 08:01:00,
2013-08-02 01:07:00,54.5,53.7,30.13,SW,220,0.0,1.0,97,0.00,,,0.00,Wunderground v.1.15,2013-08-02 08:07:00,
2013-08-02 01:13:00,54.4,53.6,30.13,SW,220,0.0,1.0,97,0.00,,,0.00,Wunderground v.1.15,2013-08-02 08:13:00,
2013-08-02 01:18:00,54.5,53.7,30.13,SW,220,0.0,1.0,97,0.00,,,0.00,Wunderground v.1.15,2013-08-02 08:18:00,
2013-08-02 01:23:00,54.4,53.6,30.13,SW,220,0.0,1.0,97,0.00,,,0.00,Wunderground v.1.15,2013-08-02 08:23:00,
2013-08-02 01:28:00,54.4,53.6,30.13,SW,220,0.0,1.0,97,0.00,,,0.00,Wunderground v.1.15,2013-08-02 08:28:00,
2013-08-02 01:33:00,54.5,53.9,30.12,SW,220,0.0,1.0,98,0.00,,,0.00,Wunderground v.1.15,2013-08-02 08:33:00,
2013-08-02 01:39:00,54.6,53.8,30.13,SW,220,1.0,1.0,97,0.00,,,0.00,Wunderground v.1.15,2013-08-02 08:39:00,
2013-08-02 01:44:00,54.6,54.0,30.12,SW,220,1.0,1.0,98,0.00,,,0.00,Wunderground v.1.15,2013-08-02 08:44:00,
2013-08-02 01:50:00,54.7,54.1,30.13,SW,220,0.0,1.0,98,0.00,,,0.00,Wunderground v.1.15,2013-08-02 08:50:00,
2013-08-02 01:55:00,54.9,54.3,30.13,SW,220,0.0,1.0,98,0.00,,,0.00,Wunderground v.1.15,2013-08-02 08:55:00,
2013-08-02 02:01:00,54.9,54.3,30.12,SW,220,0.0,1.0,98,0.00,,,0.00,Wunderground v.1.15,2013-08-02 09:01:00,
2013-08-02 02:06:00,54.9,54.3,30.12,SW,220,0.0,1.0,98,0.00,,,0.00,Wunderground v.1.15,2013-08-02 09:06:00,
2013-08-02 02:12:00,54.9,54.3,30.13,SW,220,0.0,1.0,98,0.00,,,0.00,Wunderground v.1.15,2013-08-02 09:12:00,
2013-08-02 02:18:00,55.0,54.4,30.12,SW,220,0.0,1.0,98,0.00,,,0.00,Wunderground v.1.15,2013-08-02 09:18:00,
2013-08-02 02:23:00,55.1,54.5,30.13,SW,220,1.0,2.0,98,0.00,,,0.00,Wunderground v.1.15,2013-08-02 09:23:00,
2013-08-02 02:28:00,55.1,54.5,30.12,SW,220,1.0,2.0,98,0.00,,,0.00,Wunderground v.1.15,2013-08-02 09:28:00,
2013-08-02 02:34:00,55.1,54.5,30.12,SW,220,0.0,1.0,98,0.00,,,0.00,Wunderground v.1.15,2013-08-02 09:34:00,
2013-08-02 02:39:00,55.2,54.6,30.12,SW,220,0.0,1.0,98,0.00,,,0.00,Wunderground v.1.15,2013-08-02 09:39:00,
2013-08-02 02:45:00,55.2,54.6,30.12,SW,220,0.0,1.0,98,0.00,,,0.00,Wunderground v.1.15,2013-08-02 09:45:00,
2013-08-02 02:50:00,55.2,54.6,30.12,SW,220,0.0,1.0,98,0.00,,,0.00,Wunderground v.1.15,2013-08-02 09:50:00,
2013-08-02 02:56:00,55.2,54.6,30.12,SW,220,0.0,1.0,98,0.00,,,0.00,Wunderground v.1.15,2013-08-02 09:56:00,
2013-08-02 03:01:00,55.2,54.6,30.12,SW,220,0.0,1.0,98,0.00,,,0.00,Wunderground v.1.15,2013-08-02 10:01:00,
2013-08-02 03:07:00,55.2,54.6,30.12,SW,220,0.0,1.0,98,0.00,,,0.00,Wunderground v.1.15,2013-08-02 10:07:00,
2013-08-02 03:12:00,55.3,54.7,30.12,SW,220,0.0,1.0,98,0.00,,,0.00,Wunderground v.1.15,2013-08-02 10:12:00,
2013-08-02 03:17:00,55.3,54.7,30.11,SW,220,0.0,1.0,98,0.00,,,0.00,Wunderground v.1.15,2013-08-02 10:17:00,
2013-08-02 03:23:00,55.3,54.5,30.11,SW,220,0.0,1.0,97,0.00,,,0.00,Wunderground v.1.15,2013-08-02 10:23:00,
2013-08-02 03:29:00,53.7,52.6,30.11,SW,220,1.0,3.0,96,0.00,,,0.00,Wunderground v.1.15,2013-08-02 10:29:00,
2013-08-02 03:35:00,53.7,52.9,30.11,SW,220,1.0,3.0,97,0.00,,,0.00,Wunderground v.1.15,2013-08-02 10:35:00,
2013-08-02 03:41:00,53.1,52.3,30.12,SW,220,1.0,1.0,97,0.00,,,0.00,Wunderground v.1.15,2013-08-02 10:41:00,
2013-08-02 03:46:00,52.9,52.1,30.12,SW,220,1.0,3.0,97,0.00,,,0.00,Wunderground v.1.15,2013-08-02 10:46:00,
2013-08-02 03:52:00,52.8,52.0,30.12,SW,220,1.0,2.0,97,0.00,,,0.00,Wunderground v.1.15,2013-08-02 10:52:00,
2013-08-02 03:58:00,52.8,52.0,30.11,SW,220,0.0,3.0,97,0.00,,,0.00,Wunderground v.1.15,2013-08-02 10:58:00,
2013-08-02 04:03:00,52.8,52.3,30.11,SW,220,1.0,2.0,98,0.00,,,0.00,Wunderground v.1.15,2013-08-02 11:03:00,
2013-08-02 04:08:00,52.8,52.3,30.11,SW,220,2.0,4.0,98,0.00,,,0.00,Wunderground v.1.15,2013-08-02 11:08:00,
2013-08-02 04:14:00,52.6,52.1,30.11,SW,220,2.0,2.0,98,0.00,,,0.00,Wunderground v.1.15,2013-08-02 11:14:00,
2013-08-02 04:19:00,52.5,52.0,30.11,SW,220,1.0,2.0,98,0.00,,,0.00,Wunderground v.1.15,2013-08-02 11:19:00,
2013-08-02 04:24:00,52.4,51.9,30.11,SW,220,1.0,1.0,98,0.00,,,0.00,Wunderground v.1.15,2013-08-02 11:24:00,
2013-08-02 04:31:00,52.3,51.8,30.11,SW,220,1.0,3.0,98,0.00,,,0.00,Wunderground v.1.15,2013-08-02 11:31:00,
2013-08-02 04:36:00,52.2,51.7,30.11,SW,220,2.0,3.0,98,0.00,,,0.00,Wunderground v.1.15,2013-08-02 11:36:00,
2013-08-02 04:41:00,52.2,51.7,30.11,SW,220,2.0,4.0,98,0.00,,,0.00,Wunderground v.1.15,2013-08-02 11:41:00,
2013-08-02 04:47:00,52.4,51.9,30.11,SW,220,2.0,4.0,98,0.00,,,0.00,Wunderground v.1.15,2013-08-02 11:47:00,
2013-08-02 04:52:00,52.8,52.5,30.11,SW,220,2.0,3.0,99,0.00,,,0.00,Wunderground v.1.15,2013-08-02 11:52:00,
2013-08-02 04:58:00,53.0,52.5,30.11,SW,220,2.0,3.0,98,0.00,,,0.00,Wunderground v.1.15,2013-08-02 11:58:00,
2013-08-02 05:03:00,53.0,52.5,30.11,SW,220,2.0,3.0,98,0.00,,,0.00,Wunderground v.1.15,2013-08-02 12:03:00,
2013-08-02 05:09:00,53.1,52.6,30.11,SW,220,2.0,3.0,98,0.00,,,0.00,Wunderground v.1.15,2013-08-02 12:09:00,
2013-08-02 05:14:00,53.5,53.2,30.11,SW,220,2.0,3.0,99,0.00,,,0.00,Wunderground v.1.15,2013-08-02 12:14:00,
2013-08-02 05:20:00,53.7,53.1,30.11,SW,220,2.0,2.0,98,0.00,,,0.00,Wunderground v.1.15,2013-08-02 12:20:00,
2013-08-02 05:26:00,53.7,53.1,30.11,SW,220,1.0,2.0,98,0.00,,,0.00,Wunderground v.1.15,2013-08-02 12:26:00,
2013-08-02 05:32:00,53.6,53.0,30.11,SW,220,1.0,2.0,98,0.00,,,0.00,Wunderground v.1.15,2013-08-02 12:32:00,
2013-08-02 05:37:00,53.5,52.9,30.11,SW,220,1.0,2.0,98,0.00,,,0.00,Wunderground v.1.15,2013-08-02 12:37:00,
2013-08-02 05:43:00,53.3,52.8,30.11,SW,220,0.0,1.0,98,0.00,,,0.00,Wunderground v.1.15,2013-08-02 12:43:00,
2013-08-02 05:49:00,52.8,52.3,30.11,SW,220,0.0,1.0,98,0.00,,,0.00,Wunderground v.1.15,2013-08-02 12:49:00,
2013-08-02 05:54:00,52.5,52.0,30.10,SW,220,0.0,1.0,98,0.00,,,0.00,Wunderground v.1.15,2013-08-02 12:54:00,
2013-08-02 05:59:00,52.5,52.0,30.11,SW,220,0.0,1.0,98,0.00,,,0.00,Wunderground v.1.15,2013-08-02 12:59:00,
2013-08-02 06:05:00,52.9,52.4,30.11,SW,220,1.0,4.0,98,0.00,,,0.00,Wunderground v.1.15,2013-08-02 13:05:00,
2013-08-02 06:11:00,53.0,52.5,30.11,SW,220,2.0,2.0,98,0.00,,,0.00,Wunderground v.1.15,2013-08-02 13:11:00,
2013-08-02 06:17:00,53.0,52.5,30.11,SW,220,1.0,2.0,98,0.00,,,0.00,Wunderground v.1.15,2013-08-02 13:17:00,
2013-08-02 06:22:00,52.9,52.4,30.11,SW,220,2.0,5.0,98,0.00,,,0.00,Wunderground v.1.15,2013-08-02 13:22:00,
2013-08-02 06:28:00,52.8,52.3,30.11,SW,220,2.0,5.0,98,0.00,,,0.00,Wunderground v.1.15,2013-08-02 13:28:00,
2013-08-02 06:33:00,52.9,52.4,30.11,SW,220,2.0,3.0,98,0.00,,,0.00,Wunderground v.1.15,2013-08-02 13:33:00,
2013-08-02 06:39:00,53.1,52.6,30.11,SW,220,2.0,3.0,98,0.00,,,0.00,Wunderground v.1.15,2013-08-02 13:39:00,
2013-08-02 06:45:00,52.9,52.4,30.11,SW,220,2.0,3.0,98,0.00,,,0.00,Wunderground v.1.15,2013-08-02 13:45:00,
2013-08-02 06:50:00,52.6,52.1,30.11,SW,220,2.0,5.0,98,0.00,,,0.00,Wunderground v.1.15,2013-08-02 13:50:00,
2013-08-02 06:56:00,52.7,52.4,30.11,SW,220,2.0,5.0,99,0.00,,,0.00,Wunderground v.1.15,2013-08-02 13:56:00,
2013-08-02 07:02:00,52.9,52.4,30.11,SW,220,2.0,3.0,98,0.00,,,0.00,Wunderground v.1.15,2013-08-02 14:02:00,
2013-08-02 07:08:00,53.2,52.9,30.11,SW,220,2.0,4.0,99,0.00,,,0.00,Wunderground v.1.15,2013-08-02 14:08:00,
2013-08-02 07:14:00,53.5,53.2,30.11,SW,220,2.0,3.0,99,0.00,,,0.00,Wunderground v.1.15,2013-08-02 14:14:00,
2013-08-02 07:19:00,54.1,53.8,30.11,SW,220,2.0,3.0,99,0.00,,,0.00,Wunderground v.1.15,2013-08-02 14:19:00,
2013-08-02 07:25:00,54.7,54.4,30.11,SW,220,3.0,4.0,99,0.00,,,0.00,Wunderground v.1.15,2013-08-02 14:25:00,
2013-08-02 07:31:00,55.1,54.8,30.11,SW,220,3.0,4.0,99,0.00,,,0.00,Wunderground v.1.15,2013-08-02 14:31:00,
2013-08-02 07:37:00,55.1,54.5,30.11,SW,220,2.0,4.0,98,0.00,,,0.00,Wunderground v.1.15,2013-08-02 14:37:00,
2013-08-02 07:43:00,55.1,54.5,30.11,SW,220,2.0,3.0,98,0.00,,,0.00,Wunderground v.1.15,2013-08-02 14:43:00,
2013-08-02 07:48:00,55.0,54.4,30.11,SW,220,2.0,3.0,98,0.00,,,0.00,Wunderground v.1.15,2013-08-02 14:48:00,
2013-08-02 07:54:00,54.7,54.1,30.11,SW,220,2.0,2.0,98,0.00,,,0.00,Wunderground v.1.15,2013-08-02 14:54:00,
2013-08-02 07:59:00,53.9,53.1,30.11,SW,221,2.0,4.0,97,0.00,,,0.00,Wunderground v.1.15,2013-08-02 14:59:00,
2013-08-02 08:05:00,53.3,52.5,30.11,SW,222,3.0,4.0,97,0.00,,,0.00,Wunderground v.1.15,2013-08-02 15:05:00,
2013-08-02 08:10:00,53.7,53.1,30.12,SW,222,3.0,3.0,98,0.00,,,0.00,Wunderground v.1.15,2013-08-02 15:10:00,
2013-08-02 08:16:00,53.7,52.9,30.12,SW,222,3.0,4.0,97,0.00,,,0.00,Wunderground v.1.15,2013-08-02 15:16:00,
2013-08-02 08:22:00,53.9,53.1,30.12,SW,222,3.0,3.0,97,0.00,,,0.00,Wunderground v.1.15,2013-08-02 15:22:00,
2013-08-02 08:27:00,53.6,52.8,30.12,SW,225,3.0,6.0,97,0.00,,,0.00,Wunderground v.1.15,2013-08-02 15:27:00,
2013-08-02 08:33:00,53.5,52.7,30.12,SW,225,3.0,3.0,97,0.00,,,0.00,Wunderground v.1.15,2013-08-02 15:33:00,
2013-08-02 08:38:00,53.2,52.4,30.12,SW,229,3.0,5.0,97,0.00,,,0.00,Wunderground v.1.15,2013-08-02 15:38:00,
2013-08-02 08:44:00,53.3,52.5,30.12,WSW,243,4.0,5.0,97,0.00,,,0.00,Wunderground v.1.15,2013-08-02 15:44:00,
2013-08-02 08:49:00,53.3,52.5,30.12,WSW,255,4.0,6.0,97,0.00,,,0.00,Wunderground v.1.15,2013-08-02 15:49:00,
2013-08-02 08:54:00,53.0,51.9,30.12,NNW,329,5.0,8.0,96,0.00,,,0.00,Wunderground v.1.15,2013-08-02 15:54:00,
2013-08-02 09:00:00,53.0,52.2,30.12,NNW,336,6.0,7.0,97,0.00,,,0.00,Wunderground v.1.15,2013-08-02 16:00:00,
2013-08-02 09:05:00,52.6,51.8,30.12,NNW,339,6.0,7.0,97,0.00,,,0.00,Wunderground v.1.15,2013-08-02 16:05:00,
2013-08-02 09:11:00,52.6,51.8,30.12,North,349,7.0,8.0,97,0.00,,,0.00,Wunderground v.1.15,2013-08-02 16:11:00,
2013-08-02 09:17:00,52.9,52.1,30.12,North,351,7.0,10.0,97,0.00,,,0.00,Wunderground v.1.15,2013-08-02 16:17:00,
2013-08-02 09:23:00,52.9,52.1,30.12,North,355,6.0,7.0,97,0.00,,,0.00,Wunderground v.1.15,2013-08-02 16:23:00,
2013-08-02 09:28:00,53.1,52.3,30.12,North,355,6.0,9.0,97,0.00,,,0.00,Wunderground v.1.15,2013-08-02 16:28:00,
2013-08-02 09:33:00,53.1,52.3,30.12,North,355,7.0,8.0,97,0.00,,,0.00,Wunderground v.1.15,2013-08-02 16:33:00,
2013-08-02 09:39:00,53.0,52.2,30.11,North,351,7.0,8.0,97,0.00,,,0.00,Wunderground v.1.15,2013-08-02 16:39:00,
2013-08-02 09:44:00,53.2,52.4,30.11,North,355,7.0,9.0,97,0.00,,,0.00,Wunderground v.1.15,2013-08-02 16:44:00,
2013-08-02 09:50:00,53.0,52.2,30.11,North,355,7.0,8.0,97,0.00,,,0.00,Wunderground v.1.15,2013-08-02 16:50:00,
2013-08-02 09:56:00,52.8,52.0,30.11,North,355,7.0,8.0,97,0.00,,,0.00,Wunderground v.1.15,2013-08-02 16:56:00,
2013-08-02 10:02:00,52.8,52.0,30.11,North,355,8.0,8.0,97,0.00,,,0.00,Wunderground v.1.15,2013-08-02 17:02:00,
2013-08-02 10:07:00,52.9,52.1,30.11,North,355,8.0,10.0,97,0.00,,,0.00,Wunderground v.1.15,2013-08-02 17:07:00,
2013-08-02 10:12:00,52.9,52.1,30.11,North,355,8.0,9.0,97,0.00,,,0.00,Wunderground v.1.15,2013-08-02 17:12:00,
2013-08-02 10:18:00,52.9,52.1,30.11,North,355,9.0,11.0,97,0.00,,,0.00,Wunderground v.1.15,2013-08-02 17:18:00,
2013-08-02 10:23:00,53.1,52.3,30.11,North,355,9.0,9.0,97,0.00,,,0.00,Wunderground v.1.15,2013-08-02 17:23:00,
2013-08-02 10:28:00,53.1,52.3,30.11,North,355,9.0,12.0,97,0.00,,,0.00,Wunderground v.1.15,2013-08-02 17:28:00,
2013-08-02 10:33:00,53.3,52.5,30.11,North,355,9.0,10.0,97,0.00,,,0.00,Wunderground v.1.15,2013-08-02 17:33:00,
2013-08-02 10:38:00,53.4,52.6,30.11,North,355,9.0,12.0,97,0.00,,,0.00,Wunderground v.1.15,2013-08-02 17:38:00,
2013-08-02 10:44:00,53.4,52.6,30.10,North,350,9.0,13.0,97,0.00,,,0.00,Wunderground v.1.15,2013-08-02 17:44:00,
2013-08-02 10:50:00,53.5,52.7,30.10,North,355,9.0,9.0,97,0.00,,,0.00,Wunderground v.1.15,2013-08-02 17:50:00,
2013-08-02 10:56:00,53.2,52.4,30.11,NNW,348,9.0,10.0,97,0.00,,,0.00,Wunderground v.1.15,2013-08-02 17:56:00,
2013-08-02 11:01:00,53.1,52.3,30.10,North,355,9.0,10.0,97,0.00,,,0.00,Wunderground v.1.15,2013-08-02 18:01:00,
2013-08-02 11:06:00,53.1,52.3,30.10,North,350,9.0,10.0,97,0.00,,,0.00,Wunderground v.1.15,2013-08-02 18:06:00,
2013-08-02 11:11:00,53.1,52.3,30.11,North,350,9.0,11.0,97,0.00,,,0.00,Wunderground v.1.15,2013-08-02 18:11:00,
2013-08-02 11:17:00,53.2,52.4,30.10,NNW,347,9.0,12.0,97,0.00,,,0.00,Wunderground v.1.15,2013-08-02 18:17:00,
2013-08-02 11:22:00,53.3,52.5,30.11,NNW,344,9.0,11.0,97,0.00,,,0.00,Wunderground v.1.15,2013-08-02 18:22:00,
2013-08-02 11:28:00,53.3,52.5,30.11,North,355,10.0,11.0,97,0.00,,,0.00,Wunderground v.1.15,2013-08-02 18:28:00,
2013-08-02 11:34:00,53.4,52.6,30.10,NNW,344,9.0,10.0,97,0.00,,,0.00,Wunderground v.1.15,2013-08-02 18:34:00,
2013-08-02 11:39:00,53.5,52.7,30.10,NNW,348,9.0,10.0,97,0.00,,,0.00,Wunderground v.1.15,2013-08-02 18:39:00,
2013-08-02 11:44:00,53.5,52.7,30.10,NNW,339,9.0,10.0,97,0.00,,,0.00,Wunderground v.1.15,2013-08-02 18:44:00,
2013-08-02 11:50:00,53.5,52.7,30.10,NNW,344,9.0,10.0,97,0.00,,,0.00,Wunderground v.1.15,2013-08-02 18:50:00,
2013-08-02 11:55:00,53.6,52.8,30.10,NNW,348,9.0,14.0,97,0.00,,,0.00,Wunderground v.1.15,2013-08-02 18:55:00,
2013-08-02 12:01:00,53.7,52.9,30.10,NNW,348,9.0,10.0,97,0.00,,,0.00,Wunderground v.1.15,2013-08-02 19:01:00,
2013-08-02 12:06:00,53.7,52.9,30.10,North,355,9.0,11.0,97,0.00,,,0.00,Wunderground v.1.15,2013-08-02 19:06:00,
2013-08-02 12:12:00,53.8,53.0,30.10,NNW,348,9.0,10.0,97,0.00,,,0.00,Wunderground v.1.15,2013-08-02 19:12:00,
2013-08-02 12:18:00,53.8,52.7,30.10,NW,323,10.0,10.0,96,0.00,,,0.00,Wunderground v.1.15,2013-08-02 19:18:00,
2013-08-02 12:23:00,53.7,52.6,30.10,NNW,334,10.0,13.0,96,0.00,,,0.00,Wunderground v.1.15,2013-08-02 19:23:00,
2013-08-02 12:28:00,53.5,52.4,30.10,NNW,346,10.0,14.0,96,0.00,,,0.00,Wunderground v.1.15,2013-08-02 19:28:00,
2013-08-02 12:34:00,53.3,52.5,30.10,North,355,11.0,12.0,97,0.00,,,0.00,Wunderground v.1.15,2013-08-02 19:34:00,
2013-08-02 12:40:00,53.3,52.2,30.10,North,355,11.0,11.0,96,0.00,,,0.00,Wunderground v.1.15,2013-08-02 19:40:00,
2013-08-02 12:46:00,53.5,52.7,30.09,North,360,11.0,14.0,97,0.00,,,0.00,Wunderground v.1.15,2013-08-02 19:46:00,
2013-08-02 12:52:00,53.4,52.3,30.09,NNW,346,12.0,12.0,96,0.00,,,0.00,Wunderground v.1.15,2013-08-02 19:52:00,
2013-08-02 12:58:00,53.7,52.6,30.09,North,355,11.0,15.0,96,0.00,,,0.00,Wunderground v.1.15,2013-08-02 19:58:00,
2013-08-02 13:03:00,53.5,52.4,30.09,North,360,12.0,14.0,96,0.00,,,0.00,Wunderground v.1.15,2013-08-02 20:03:00,
2013-08-02 13:09:00,53.2,52.1,30.09,NNW,348,12.0,15.0,96,0.00,,,0.00,Wunderground v.1.15,2013-08-02 20:09:00,
2013-08-02 13:15:00,53.4,52.3,30.09,North,355,12.0,14.0,96,0.00,,,0.00,Wunderground v.1.15,2013-08-02 20:15:00,
2013-08-02 13:21:00,53.6,52.5,30.09,North,355,12.0,12.0,96,0.00,,,0.00,Wunderground v.1.15,2013-08-02 20:21:00,
2013-08-02 13:27:00,53.6,52.5,30.09,North,350,11.0,13.0,96,0.00,,,0.00,Wunderground v.1.15,2013-08-02 20:27:00,
2013-08-02 13:32:00,53.5,52.1,30.09,North,360,11.0,12.0,95,0.00,,,0.00,Wunderground v.1.15,2013-08-02 20:32:00,
2013-08-02 13:38:00,53.8,52.7,30.09,NNW,344,10.0,12.0,96,0.00,,,0.00,Wunderground v.1.15,2013-08-02 20:38:00,
2013-08-02 13:43:00,53.9,52.5,30.09,North,350,10.0,13.0,95,0.00,,,0.00,Wunderground v.1.15,2013-08-02 20:43:00,
2013-08-02 13:49:00,54.0,52.6,30.09,North,355,11.0,13.0,95,0.00,,,0.00,Wunderground v.1.15,2013-08-02 20:49:00,
2013-08-02 13:55:00,53.9,52.8,30.09,NNW,348,11.0,13.0,96,0.00,,,0.00,Wunderground v.1.15,2013-08-02 20:55:00,
2013-08-02 14:01:00,53.9,52.8,30.09,NNW,346,11.0,12.0,96,0.00,,,0.00,Wunderground v.1.15,2013-08-02 21:01:00,
2013-08-02 14:06:00,54.2,52.8,30.09,NNW,346,10.0,12.0,95,0.00,,,0.00,Wunderground v.1.15,2013-08-02 21:06:00,
2013-08-02 14:11:00,54.1,52.7,30.09,North,355,10.0,11.0,95,0.00,,,0.00,Wunderground v.1.15,2013-08-02 21:11:00,
2013-08-02 14:17:00,54.1,52.7,30.09,North,355,9.0,11.0,95,0.00,,,0.00,Wunderground v.1.15,2013-08-02 21:17:00,
2013-08-02 14:23:00,54.0,52.6,30.09,NNW,348,10.0,12.0,95,0.00,,,0.00,Wunderground v.1.15,2013-08-02 21:23:00,
2013-08-02 14:28:00,54.0,52.6,30.09,North,349,10.0,12.0,95,0.00,,,0.00,Wunderground v.1.15,2013-08-02 21:28:00,
2013-08-02 14:33:00,54.0,52.6,30.09,NNW,348,10.0,10.0,95,0.00,,,0.00,Wunderground v.1.15,2013-08-02 21:33:00,
2013-08-02 14:39:00,54.1,52.7,30.09,North,351,9.0,11.0,95,0.00,,,0.00,Wunderground v.1.15,2013-08-02 21:39:00,
2013-08-02 14:45:00,54.2,52.8,30.09,NNW,348,9.0,10.0,95,0.00,,,0.00,Wunderground v.1.15,2013-08-02 21:45:00,
2013-08-02 14:50:00,54.4,53.0,30.09,NNW,344,9.0,9.0,95,0.00,,,0.00,Wunderground v.1.15,2013-08-02 21:50:00,
2013-08-02 14:55:00,54.4,52.7,30.09,NNW,346,9.0,10.0,94,0.00,,,0.00,Wunderground v.1.15,2013-08-02 21:55:00,
2013-08-02 15:01:00,54.5,52.8,30.09,NNW,344,8.0,8.0,94,0.00,,,0.00,Wunderground v.1.15,2013-08-02 22:01:00,
2013-08-02 15:07:00,54.3,52.9,30.09,NNW,346,8.0,10.0,95,0.00,,,0.00,Wunderground v.1.15,2013-08-02 22:07:00,
2013-08-02 15:12:00,54.3,52.9,30.09,NNW,345,8.0,10.0,95,0.00,,,0.00,Wunderground v.1.15,2013-08-02 22:12:00,
2013-08-02 15:18:00,54.4,53.0,30.09,North,355,9.0,11.0,95,0.00,,,0.00,Wunderground v.1.15,2013-08-02 22:18:00,
2013-08-02 15:23:00,54.7,53.3,30.09,North,355,9.0,10.0,95,0.00,,,0.00,Wunderground v.1.15,2013-08-02 22:23:00,
2013-08-02 15:28:00,54.6,52.9,30.09,North,355,9.0,10.0,94,0.00,,,0.00,Wunderground v.1.15,2013-08-02 22:28:00,
2013-08-02 15:34:00,54.7,53.3,30.09,North,355,9.0,10.0,95,0.00,,,0.00,Wunderground v.1.15,2013-08-02 22:34:00,
2013-08-02 15:40:00,54.8,53.1,30.09,North,5,9.0,10.0,94,0.00,,,0.00,Wunderground v.1.15,2013-08-02 22:40:00,
2013-08-02 15:45:00,54.8,53.4,30.09,North,9,9.0,11.0,95,0.00,,,0.00,Wunderground v.1.15,2013-08-02 22:45:00,
2013-08-02 15:51:00,54.8,53.1,30.09,North,355,10.0,10.0,94,0.00,,,0.00,Wunderground v.1.15,2013-08-02 22:51:00,
2013-08-02 15:57:00,55.1,53.4,30.09,North,355,10.0,11.0,94,0.00,,,0.00,Wunderground v.1.15,2013-08-02 22:57:00,
2013-08-02 16:03:00,55.4,53.7,30.09,North,355,8.0,10.0,94,0.00,,,0.00,Wunderground v.1.15,2013-08-02 23:03:00,
2013-08-02 16:08:00,55.4,53.7,30.09,North,5,8.0,12.0,94,0.00,,,0.00,Wunderground v.1.15,2013-08-02 23:08:00,
2013-08-02 16:14:00,54.9,53.2,30.09,North,355,10.0,11.0,94,0.00,,,0.00,Wunderground v.1.15,2013-08-02 23:14:00,
2013-08-02 16:19:00,55.3,53.9,30.09,NNW,344,10.0,11.0,95,0.00,,,0.00,Wunderground v.1.15,2013-08-02 23:19:00,
2013-08-02 16:25:00,55.6,53.9,30.09,North,355,8.0,10.0,94,0.00,,,0.00,Wunderground v.1.15,2013-08-02 23:25:00,
2013-08-02 16:30:00,55.7,54.0,30.09,North,350,7.0,11.0,94,0.00,,,0.00,Wunderground v.1.15,2013-08-02 23:30:00,
2013-08-02 16:36:00,55.6,53.9,30.09,NNE,13,7.0,11.0,94,0.00,,,0.00,Wunderground v.1.15,2013-08-02 23:36:00,
2013-08-02 16:42:00,55.6,53.6,30.09,North,355,7.0,13.0,93,0.00,,,0.00,Wunderground v.1.15,2013-08-02 23:42:00,
2013-08-02 16:48:00,55.1,53.4,30.09,NNW,346,10.0,13.0,94,0.00,,,0.00,Wunderground v.1.15,2013-08-02 23:48:00,
2013-08-02 16:54:00,55.0,53.3,30.08,North,360,11.0,12.0,94,0.00,,,0.00,Wunderground v.1.15,2013-08-02 23:54:00,
2013-08-02 17:00:00,55.1,53.4,30.08,North,5,11.0,11.0,94,0.00,,,0.00,Wunderground v.1.15,2013-08-03 00:00:00,
2013-08-02 17:06:00,54.9,53.2,30.08,North,350,11.0,15.0,94,0.00,,,0.00,Wunderground v.1.15,2013-08-03 00:06:00,
2013-08-02 17:12:00,54.9,53.2,30.08,North,5,12.0,13.0,94,0.00,,,0.00,Wunderground v.1.15,2013-08-03 00:12:00,
2013-08-02 17:17:00,55.0,53.3,30.08,North,360,13.0,16.0,94,0.00,,,0.00,Wunderground v.1.15,2013-08-03 00:17:00,
2013-08-02 17:23:00,55.1,53.4,30.08,NNW,348,12.0,13.0,94,0.00,,,0.00,Wunderground v.1.15,2013-08-03 00:23:00,
2013-08-02 17:28:00,55.0,53.3,30.08,North,5,12.0,16.0,94,0.00,,,0.00,Wunderground v.1.15,2013-08-03 00:28:00,
2013-08-02 17:34:00,55.4,53.7,30.08,NNE,24,11.0,13.0,94,0.00,,,0.00,Wunderground v.1.15,2013-08-03 00:34:00,
2013-08-02 17:39:00,55.6,53.9,30.08,NNE,14,10.0,13.0,94,0.00,,,0.00,Wunderground v.1.15,2013-08-03 00:39:00,
2013-08-02 17:44:00,55.3,53.6,30.08,NNE,15,12.0,18.0,94,0.00,,,0.00,Wunderground v.1.15,2013-08-03 00:44:00,
2013-08-02 17:50:00,55.2,53.5,30.08,North,350,15.0,16.0,94,0.00,,,0.00,Wunderground v.1.15,2013-08-03 00:50:00,
2013-08-02 17:55:00,55.2,53.5,30.07,North,11,15.0,18.0,94,0.00,,,0.00,Wunderground v.1.15,2013-08-03 00:55:00,
2013-08-02 18:00:00,55.3,53.6,30.07,NNW,348,14.0,14.0,94,0.00,,,0.00,Wunderground v.1.15,2013-08-03 01:00:00,
2013-08-02 18:05:00,55.5,53.8,30.07,North,360,13.0,19.0,94,0.00,,,0.00,Wunderground v.1.15,2013-08-03 01:05:00,
2013-08-02 18:11:00,55.1,53.4,30.07,North,360,13.0,15.0,94,0.00,,,0.00,Wunderground v.1.15,2013-08-03 01:11:00,
2013-08-02 18:16:00,54.9,53.2,30.07,North,360,14.0,16.0,94,0.00,,,0.00,Wunderground v.1.15,2013-08-03 01:16:00,
2013-08-02 18:21:00,54.7,53.0,30.07,North,360,14.0,15.0,94,0.00,,,0.00,Wunderground v.1.15,2013-08-03 01:21:00,
2013-08-02 18:27:00,54.3,52.6,30.07,North,355,14.0,18.0,94,0.00,,,0.00,Wunderground v.1.15,2013-08-03 01:27:00,
2013-08-02 18:33:00,54.3,52.9,30.07,NNW,342,14.0,18.0,95,0.00,,,0.00,Wunderground v.1.15,2013-08-03 01:33:00,
2013-08-02 18:39:00,54.1,52.7,30.07,NNE,22,15.0,18.0,95,0.00,,,0.00,Wunderground v.1.15,2013-08-03 01:39:00,
2013-08-02 18:45:00,54.0,52.6,30.07,NNW,346,15.0,15.0,95,0.00,,,0.00,Wunderground v.1.15,2013-08-03 01:45:00,
2013-08-02 18:51:00,53.5,52.1,30.07,North,5,14.0,15.0,95,0.00,,,0.00,Wunderground v.1.15,2013-08-03 01:51:00,
2013-08-02 18:57:00,53.2,52.1,30.07,North,355,15.0,17.0,96,0.00,,,0.00,Wunderground v.1.15,2013-08-03 01:57:00,
2013-08-02 19:03:00,53.1,52.0,30.07,North,5,15.0,17.0,96,0.00,,,0.00,Wunderground v.1.15,2013-08-03 02:03:00,
2013-08-02 19:08:00,52.8,51.7,30.07,North,355,14.0,17.0,96,0.00,,,0.00,Wunderground v.1.15,2013-08-03 02:08:00,
2013-08-02 19:13:00,52.5,51.4,30.07,North,360,13.0,14.0,96,0.00,,,0.00,Wunderground v.1.15,2013-08-03 02:13:00,
2013-08-02 19:18:00,52.3,51.5,30.07,NNE,19,12.0,16.0,97,0.00,,,0.00,Wunderground v.1.15,2013-08-03 02:18:00,
2013-08-02 19:23:00,52.1,51.3,30.07,North,5,12.0,14.0,97,0.00,,,0.00,Wunderground v.1.15,2013-08-03 02:23:00,
2013-08-02 19:29:00,52.0,51.2,30.07,ENE,57,10.0,14.0,97,0.00,,,0.00,Wunderground v.1.15,2013-08-03 02:29:00,
2013-08-02 19:34:00,51.9,51.1,30.07,North,360,9.0,10.0,97,0.00,,,0.00,Wunderground v.1.15,2013-08-03 02:34:00,
2013-08-02 19:39:00,51.7,50.9,30.07,North,350,9.0,12.0,97,0.00,,,0.00,Wunderground v.1.15,2013-08-03 02:39:00,
2013-08-02 19:45:00,51.7,51.2,30.07,North,355,10.0,13.0,98,0.00,,,0.00,Wunderground v.1.15,2013-08-03 02:45:00,
2013-08-02 19:51:00,51.6,51.1,30.07,NNW,342,10.0,10.0,98,0.00,,,0.00,Wunderground v.1.15,2013-08-03 02:51:00,
2013-08-02 19:57:00,51.5,51.0,30.08,NNW,342,9.0,10.0,98,0.00,,,0.00,Wunderground v.1.15,2013-08-03 02:57:00,
2013-08-02 20:02:00,51.3,50.8,30.08,North,355,8.0,9.0,98,0.00,,,0.00,Wunderground v.1.15,2013-08-03 03:02:00,
2013-08-02 20:07:00,51.3,50.8,30.08,North,5,7.0,9.0,98,0.00,,,0.00,Wunderground v.1.15,2013-08-03 03:07:00,
2013-08-02 20:13:00,51.4,50.9,30.08,NNW,348,4.0,7.0,98,0.00,,,0.00,Wunderground v.1.15,2013-08-03 03:13:00,
2013-08-02 20:19:00,51.3,50.8,30.08,North,5,4.0,7.0,98,0.00,,,0.00,Wunderground v.1.15,2013-08-03 03:19:00,
2013-08-02 20:25:00,51.1,50.6,30.08,North,9,4.0,6.0,98,0.00,,,0.00,Wunderground v.1.15,2013-08-03 03:25:00,
2013-08-02 20:31:00,51.1,50.6,30.08,NNE,15,5.0,7.0,98,0.00,,,0.00,Wunderground v.1.15,2013-08-03 03:31:00,
2013-08-02 20:37:00,51.0,50.5,30.08,NNE,17,6.0,9.0,98,0.00,,,0.00,Wunderground v.1.15,2013-08-03 03:37:00,
2013-08-02 20:42:00,50.9,50.4,30.08,North,11,6.0,7.0,98,0.00,,,0.00,Wunderground v.1.15,2013-08-03 03:42:00,
2013-08-02 20:47:00,50.8,50.3,30.08,North,5,5.0,7.0,98,0.00,,,0.00,Wunderground v.1.15,2013-08-03 03:47:00,
2013-08-02 20:52:00,50.7,50.2,30.08,NNE,19,4.0,7.0,98,0.00,,,0.00,Wunderground v.1.15,2013-08-03 03:52:00,
2013-08-02 20:58:00,50.6,50.1,30.09,NE,34,4.0,7.0,98,0.00,,,0.00,Wunderground v.1.15,2013-08-03 03:58:00,
2013-08-02 21:01:00,50.6,50.1,30.08,NNE,17,4.0,4.0,98,0.00,,,0.00,Wunderground v.1.15,2013-08-03 04:01:00,
2013-08-02 21:03:00,50.6,50.1,30.08,NNE,24,4.0,5.0,98,0.00,,,0.00,Wunderground v.1.15,2013-08-03 04:03:00,
2013-08-02 21:06:00,50.5,50.0,30.08,NNE,19,4.0,5.0,98,0.00,,,0.00,Wunderground v.1.15,2013-08-03 04:06:00,
2013-08-02 21:07:00,50.5,50.0,30.08,NNE,23,4.0,5.0,98,0.00,,,0.00,Wunderground v.1.15,2013-08-03 04:07:00,
2013-08-02 21:13:00,50.4,49.9,30.09,NNE,13,4.0,5.0,98,0.00,,,0.00,Wunderground v.1.15,2013-08-03 04:13:00,
2013-08-02 21:17:00,50.3,49.8,30.09,NNE,22,4.0,6.0,98,0.00,,,0.00,Wunderground v.1.15,2013-08-03 04:17:00,
2013-08-02 21:22:00,50.3,49.8,30.09,NNE,19,4.0,6.0,98,0.00,,,0.00,Wunderground v.1.15,2013-08-03 04:22:00,
2013-08-02 21:28:00,50.1,49.6,30.09,North,5,4.0,7.0,98,0.00,,,0.00,Wunderground v.1.15,2013-08-03 04:28:00,
2013-08-02 21:34:00,50.0,49.5,30.09,North,9,4.0,7.0,98,0.00,,,0.00,Wunderground v.1.15,2013-08-03 04:34:00,
2013-08-02 21:40:00,50.0,49.5,30.09,North,5,4.0,4.0,98,0.00,,,0.00,Wunderground v.1.15,2013-08-03 04:40:00,
2013-08-02 21:46:00,50.0,49.5,30.09,North,360,3.0,4.0,98,0.00,,,0.00,Wunderground v.1.15,2013-08-03 04:46:00,
2013-08-02 21:52:00,50.0,49.5,30.09,NNE,15,3.0,5.0,98,0.00,,,0.00,Wunderground v.1.15,2013-08-03 04:52:00,
2013-08-02 21:58:00,50.0,49.5,30.09,NNE,22,3.0,5.0,98,0.00,,,0.00,Wunderground v.1.15,2013-08-03 04:58:00,
2013-08-02 22:03:00,50.2,49.9,30.09,NNE,22,2.0,3.0,99,0.00,,,0.00,Wunderground v.1.15,2013-08-03 05:03:00,
2013-08-02 22:09:00,50.3,49.8,30.09,NNE,22,2.0,3.0,98,0.00,,,0.00,Wunderground v.1.15,2013-08-03 05:09:00,
2013-08-02 22:15:00,50.2,49.7,30.09,NNE,21,2.0,4.0,98,0.00,,,0.00,Wunderground v.1.15,2013-08-03 05:15:00,
2013-08-02 22:21:00,50.0,49.5,30.09,NNE,21,2.0,3.0,98,0.00,,,0.00,Wunderground v.1.15,2013-08-03 05:21:00,
2013-08-02 22:26:00,49.9,49.4,30.09,NNE,21,2.0,5.0,98,0.00,,,0.00,Wunderground v.1.15,2013-08-03 05:26:00,
2013-08-02 22:32:00,50.0,49.5,30.09,NNE,21,2.0,3.0,98,0.00,,,0.00,Wunderground v.1.15,2013-08-03 05:32:00,
2013-08-02 22:37:00,50.2,49.9,30.09,NNE,21,2.0,4.0,99,0.00,,,0.00,Wunderground v.1.15,2013-08-03 05:37:00,
2013-08-02 22:43:00,50.3,50.0,30.09,NNE,21,1.0,2.0,99,0.00,,,0.00,Wunderground v.1.15,2013-08-03 05:43:00,
2013-08-02 22:48:00,50.3,50.0,30.09,NNE,20,2.0,5.0,99,0.00,,,0.00,Wunderground v.1.15,2013-08-03 05:48:00,
2013-08-02 22:54:00,50.3,50.0,30.09,NNE,19,3.0,4.0,99,0.00,,,0.00,Wunderground v.1.15,2013-08-03 05:54:00,
2013-08-02 23:00:00,50.2,49.9,30.08,NNE,16,3.0,3.0,99,0.00,,,0.00,Wunderground v.1.15,2013-08-03 06:00:00,
2013-08-02 23:06:00,50.5,50.2,30.08,NNE,16,4.0,4.0,99,0.00,,,0.00,Wunderground v.1.15,2013-08-03 06:06:00,
2013-08-02 23:11:00,50.7,50.4,30.08,NNE,13,3.0,3.0,99,0.00,,,0.00,Wunderground v.1.15,2013-08-03 06:11:00,
2013-08-02 23:18:00,50.8,50.5,30.08,NNE,15,3.0,4.0,99,0.00,,,0.00,Wunderground v.1.15,2013-08-03 06:18:00,
2013-08-02 23:24:00,50.6,50.1,30.08,NNE,15,3.0,4.0,98,0.00,,,0.00,Wunderground v.1.15,2013-08-03 06:24:00,
2013-08-02 23:30:00,50.4,50.1,30.08,NNE,15,2.0,3.0,99,0.00,,,0.00,Wunderground v.1.15,2013-08-03 06:30:00,
2013-08-02 23:35:00,50.2,49.9,30.08,NNE,15,2.0,3.0,99,0.00,,,0.00,Wunderground v.1.15,2013-08-03 06:35:00,
2013-08-02 23:41:00,50.2,49.9,30.08,NNE,15,2.0,3.0,99,0.00,,,0.00,Wunderground v.1.15,2013-08-03 06:41:00,
2013-08-02 23:47:00,50.3,50.0,30.08,North,355,3.0,7.0,99,0.00,,,0.00,Wunderground v.1.15,2013-08-03 06:47:00,
2013-08-02 23:53:00,50.0,49.7,30.08,North,360,6.0,8.0,99,0.00,,,0.00,Wunderground v.1.15,2013-08-03 06:53:00,
2013-08-02 23:58:00,49.9,49.6,30.08,North,360,7.0,8.0,99,0.00,,,0.00,Wunderground v.1.15,2013-08-03 06:58:00,